マクノート彗星

191P/McNaught (2007)

English version
Home page
Total 6,336 html files since Dec. 4, 1995
Updated on April 4, 2008

---------------------------------------------------------------------

・ プロフィール

符号 191P/2007 N1
発見日 2007年7月10日
発見光度 17.7等
発見者 R. H. McNaught (Siding Spring)

・ 写真集

・ 軌道要素

Epoch 2007 Sept. 17.0 TT = JDT 2454360.5
T 2007 Sept. 13.08711 TT                                MPC
q   2.0479348            (2000.0)            P               Q
n   0.14852351     Peri.  274.16160     +0.92434588     -0.35250857
a   3.5313377      Node   106.52894     +0.38155559     +0.85413084
e   0.4200683      Incl.    8.76118     -0.00015313     +0.38235874
P   6.64

・ 星図

・ 光度変化

        m1 = 9.0 + 5 logΔ + 20.0 log r(t - 70)

---------------------------------------------------------------------

軌道要素はM.P.E.C. 2007-R04に掲載されたものです。
星図は StellaNavigator Ver.2.0 for Windows (アストロアーツ 編著 / アスキー出版局刊) で作成したものです。
光度グラフはComet for Windowsで作成したものです。

---------------------------------------------------------------------

Copyright(C) 1995-2008 Seiichi Yoshida (comet@aerith.net). All rights reserved.